Location: Feura Bush
(42.5779°N, 73.8787°W)
Time: 12:40:54
(UTC+00:00)

UNISAT 6 - Visible Passes

Search period start: 12 December 2025 00:00
Search period end: 22 December 2025 00:00
Orbit: 576 x 640 km, 97.8° (Epoch: 12 December)

Date Brightness Start Highest point End Pass type
(mag) Time Alt. Az. Time Alt. Az. Time Alt. Az.
13 Dec ? 21:54:41 10° N 21:58:29 28° WNW 22:02:16 10° SW visible
14 Dec ? 22:08:33 10° NNW 22:11:53 21° WNW 22:15:13 10° WSW visible
15 Dec ? 22:22:34 10° NNW 22:25:15 16° WNW 22:27:56 10° W visible
16 Dec ? 22:36:57 10° NW 22:38:35 12° WNW 22:40:13 10° W visible
20 Dec ? 21:53:14 10° N 21:57:04 29° WNW 22:00:51 10° SW visible
21 Dec ? 22:07:00 10° NNW 22:10:24 22° WNW 22:13:45 10° WSW visible
